Location: Bakhuizen
(52.8696°N, 5.4575°E)
Time: 07:15:48
(UTC+00:00)

Cosmos 2344 - Pass Details

Date: 11 May 2021
Orbit: 1239 x 3003 km, 63.3° (Epoch: 20 June)

Event Time Altitude Azimuth Distance (km) Brightness Sun altitude
Rises 23:26:32 0° 313° (NW) 4,448 7.1 -19.0°
Reaches altitude 10° 23:29:07 10° 312° (NW) 3,592 6.5 -19.0°
Maximum altitude 23:37:59 81° 227° (SW) 1,807 4.2 -19.0°
Drops below altitude 10° 23:50:23 10° 143° (SE) 4,883 6.2 -18.9°
Enters shadow 23:51:08 - 143° (SE) 5,113 6.3 -18.9°
